User: anonymous   Login
Location: Unspecified
(17.6330°N, 0.0000°E)
Time: 18:31:17
(UTC+00:00)
Language:

Vanguard 2 - Orbit

View from above orbital plane
View from above orbital plane
View from above satellite
View from above satellite

Ground track
Ground track

The orbit data is extracted from the following two-line orbital elements,

1    11U 59001A   19166.83209473 -.00000062 +00000-0 -40545-4 0  9998
2    11 032.8749 355.5331 1468753 336.2417 017.6551 11.85620445231335
Epoch (UTC): 15 June 2019 19:58:12
Eccentricity: 0.1468753
inclination: 32.8749°
perigee height: 552 km
apogee height: 2939 km
right ascension of ascending node: 355.5331°
argument of perigee: 336.2417°
revolutions per day: 11.85620445
mean anomaly at epoch: 17.6551°
orbit number at epoch: 23133

The dashed part of the orbit path shows where the satellite is in the earth's shadow,  

DLR